Tracking 19562 objects as of 24-Mar-2019
HD Live streaming from Space Station
objects crossing your sky now

MOLNIYA 1-69

Track MOLNIYA 1-69 now!
MOLNIYA 1-69 is classified as:


NORAD ID: 17078
Int'l Code: 1986-089A
Perigee: 1,880.2 km
Apogee: 38,455.7 km
Inclination: 64.4 °
Period: 717.1 minutes
Semi major axis: 26538 km
RCS: 14.8739 m2 (large)
Launch date: November 15, 1986
Source: Commonwealth of Independent States (former USSR) (CIS)
Launch site: PLESETSK MISSILE AND SPACE COMPLEX (PKMTR)
aabbcc
Your satellite tracking list
Your tracking list is empty




NASA's NSSDC Master Catalog

Two Line Element Set (TLE):
1 17078U 86089A   19081.78363856 -.00001079  00000-0 -51483-3 0  9992
2 17078  64.3501 304.6470 6890902 269.3608 225.0546  2.00805911237109
Source of the keplerian elements: AFSPC